Weather History for Puerto Plata, Dominican Republic

Change the Weather History Date:

Sunday, May 25, 2014

  Actual Average Record
Temperature  
Mean Temperature 78 °F -  
Max Temperature 87 °F 86 °F 93 °F (2001)
Min Temperature 70 °F 74 °F 69 °F (2008)
Cooling Degree Days 14    
Growing Degree Days 28 (Base 50)    
Moisture  
Dew Point 74 °F    
Average Humidity 74    
Maximum Humidity 89    
Minimum Humidity 61    
Precipitation  
Precipitation 0.00 in - - ()
Sea Level Pressure  
Sea Level Pressure 30.01 in    
Wind  
Wind Speed 6 mph ()    
Max Wind Speed 17 mph    
Max Gust Speed -    
Visibility 7.1 miles    
Events      
Averages and records for this station are not official NWS values.
T = Trace of Precipitation, MM = Missing Value Source: Averaged Metar Reports

Daily Weather History Graph

Daily Weather History Graph

Search for Another Location

Airport:

Trip Planner

Search our weather history database for the weather conditions in past years. The results will help you decide how hot, cold, wet, or windy it might be!

Date:

Astronomy

May. 25, 2014 Rise Set
Actual Time 6:03 AM AST 7:14 PM AST
Civil Twilight 5:39 AM AST 7:38 PM AST
Nautical Twilight 5:11 AM AST 8:07 PM AST
Astronomical Twilight 4:41 AM AST 8:36 PM AST
Moon 3:39 AM AST (5/25) 4:34 PM AST (5/25)
Length of Visible Light 13h 59m
Length of Day
13h 11m
Waning Crescent, 10% of the Moon is Illuminated
May 25
Waning Crescent
May 28
New
Jun 5
First Quarter
Jun 13
Full
Jun 19
Last Quarter

Hourly Weather History & Observations

Time (AST) Temp. Heat Index Dew Point Humidity Pressure Visibility Wind Dir Wind Speed Gust Speed Precip Events Conditions
2:00 AM 77 °F - 73 °F 84% 30.02 in 10 mi Calm Calm - -   Scattered Clouds
2:00 AM 77.0 °F - 73.4 °F 89% 30.01 in 6.2 mi Calm Calm - N/A   Partly Cloudy
5:00 AM 73 °F - 68 °F 80% 29.99 in 10 mi Calm Calm - -   Scattered Clouds
5:00 AM 73.4 °F - 68.0 °F 83% 29.98 in 6.2 mi Calm Calm - N/A   Partly Cloudy
8:00 AM 79 °F - 74 °F 79% 30.04 in 10 mi Calm Calm - -   Scattered Clouds
8:00 AM 78.8 °F - 73.4 °F 83% 30.04 in 6.2 mi Calm Calm - N/A   Partly Cloudy
9:00 AM 82.4 °F 88.2 °F 73.4 °F 74% 30.04 in 6.2 mi ESE 11.5 mph - N/A   Scattered Clouds
10:00 AM 86.0 °F 93.4 °F 73.4 °F 66% 30.04 in 6.2 mi East 11.5 mph - N/A   Scattered Clouds
11:00 AM 86.0 °F 93.4 °F 73.4 °F 66% 30.04 in 6.2 mi ENE 11.5 mph - N/A   Scattered Clouds
12:00 PM 86.0 °F 95.1 °F 75.2 °F 70% 30.01 in 6.2 mi East 17.3 mph - N/A   Scattered Clouds
1:00 PM 87.8 °F 97.6 °F 75.2 °F 66% 30.01 in 6.2 mi East 16.1 mph - N/A   Scattered Clouds
2:00 PM 86 °F - 74 °F 61% 30.06 in 10 mi East 15.7 mph - -   Partly Cloudy
2:00 PM 86.0 °F 95.1 °F 75.2 °F 70% 29.98 in 6.2 mi East 17.3 mph - N/A   Scattered Clouds
3:00 PM 86.0 °F 95.1 °F 75.2 °F 70% 29.98 in 6.2 mi East 13.8 mph - N/A   Partly Cloudy
4:00 PM 86.0 °F 95.1 °F 75.2 °F 70% 29.95 in 6.2 mi East 13.8 mph - N/A   Scattered Clouds
5:00 PM 85 °F - 76 °F 67% 29.98 in 10 mi East 11.2 mph - -   Scattered Clouds
5:00 PM 84.2 °F 92.3 °F 75.2 °F 74% 29.98 in 6.2 mi East 11.5 mph - N/A   Scattered Clouds
6:00 PM 84.2 °F 92.3 °F 75.2 °F 74% 29.98 in 6.2 mi East 13.8 mph - N/A   Mostly Cloudy
7:00 PM 82.4 °F 88.2 °F 73.4 °F 74% 30.01 in 6.2 mi East 11.5 mph - N/A   Mostly Cloudy
8:00 PM - - - N/A% 30.01 in 6.2 mi ESE 13.8 mph - N/A   Scattered Clouds
11:00 PM 77.0 °F - 73.4 °F 89% 30.06 in 6.2 mi Calm Calm - N/A   Scattered Clouds